DW6178 Weather Reports


Display with metric or nautical units.
time (UTC)temp
F
wind
direction
speed
MPH
gust
MPH
rain 1hr
in
rain 24hr
in
rain mn
in
humidity
%
barometer
mb
20260505001506 40 183 1.0 7.0 0.00 0.00 0.00 93 1015.1
20260505000008 40 179 0.0 11.0 0.00 0.00 0.00 93 1015.1
20260504234554 40 281 1.0 5.0 0.00 0.00 0.00 93 1015.1
20260504233056 40 295 1.0 7.0 0.00 0.00 0.00 93 1015.1
20260504231552 40 181 2.0 6.0 0.00 0.00 0.00 93 1015.0
20260504230105 40 297 2.0 8.0 0.00 0.00 0.00 93 1014.9
20260504224552 40 246 2.0 5.0 0.00 0.00 0.00 93 1015.1
20260504223051 41 233 1.0 7.0 0.00 0.00 0.00 93 1015.1
20260504221601 41 165 0.0 4.0 0.00 0.00 0.00 93 1015.4
20260504220050 41 253 1.0 3.0 0.00 0.00 0.00 93 1015.3
20260504214542 41 163 1.0 5.0 0.00 0.00 0.00 93 1015.5
20260504213042 41 288 1.0 5.0 0.00 0.00 0.00 93 1015.7
20260504211535 41 289 1.0 5.0 0.00 0.00 0.00 93 1015.7
20260504210034 42 194 2.0 8.0 0.00 0.00 0.00 93 1015.4
20260504204537 41 198 1.0 5.0 0.00 0.00 0.00 93 1015.5
20260504203031 41 201 1.0 6.0 0.00 0.00 0.00 93 1015.5
20260504201530 41 195 2.0 5.0 0.00 0.00 0.00 93 1015.6
20260504200030 41 203 0.0 5.0 0.00 0.00 0.00 93 1015.4
20260504194511 40 238 2.0 6.0 0.00 0.00 0.00 93 1015.5
20260504193010 40 205 1.0 6.0 0.00 0.00 0.00 93 1015.5
20260504191611 39 248 1.0 6.0 0.00 0.00 0.00 93 1015.3
20260504190048 39 241 2.0 6.0 0.00 0.00 0.00 93 1015.3
20260504184548 39 248 1.0 4.0 0.00 0.00 0.00 93 1015.3
20260504183029 39 158 1.0 7.0 0.00 0.00 0.00 93 1014.9
20260504181531 38 204 2.0 8.0 0.00 0.00 0.00 93 1015.0
20260504180010 38 200 2.0 8.0 0.00 0.00 0.00 93 1014.6
20260504174506 38 200 2.0 6.0 0.00 0.00 0.00 93 1014.4
20260504173047 38 226 3.0 7.0 0.00 0.00 0.00 93 1014.2
20260504171545 38 191 2.0 7.0 0.00 0.00 0.00 93 1013.9
20260504081544 39 214 2.0 8.0 0.00 0.00 0.00 93 1011.1
20260504050007 38 195 1.0 7.0 0.00 0.00 0.00 93 1009.6
20260504044504 38 195 1.0 6.0 0.00 0.00 0.00 93 1009.2
20260504043049 38 174 2.0 8.0 0.00 0.00 0.00 92 1009.4
20260504041542 39 186 2.0 7.0 0.00 0.00 0.00 92 1009.4
20260504040027 39 191 2.0 10.0 0.00 0.00 0.00 92 1009.3
20260504034524 39 218 2.0 8.0 0.00 0.00 0.00 92 1009.2
20260504033023 39 162 2.0 5.0 0.00 0.00 0.00 92 1009.1
20260504031525 39 195 3.0 6.0 0.00 0.00 0.00 92 1008.7
20260504030022 39 203 1.0 5.0 0.00 0.00 0.00 92 1008.5
20260504024521 39 184 2.0 10.0 0.00 0.00 0.00 92 1008.3
20260504023018 39 217 3.0 7.0 0.00 0.00 0.00 92 1008.4
20260504021517 40 183 2.0 8.0 0.00 0.00 0.00 92 1008.1
20260504020002 40 214 2.0 5.0 0.00 0.00 0.00 92 1007.9
20260504014606 41 193 2.0 6.0 0.00 0.00 0.00 91 1007.9
20260504013059 42 194 0.0 3.0 0.00 0.00 0.00 91 1007.7
20260504011555 43 170 1.0 4.0 0.00 0.00 0.00 91 1007.7
20260504010049 44 181 1.0 4.0 0.00 0.00 0.00 91 1007.6
20260504004548 45 194 1.0 5.0 0.00 0.00 0.00 91 1007.5
20260504003051 45 195 1.0 6.0 0.00 0.00 0.00 89 1007.4